CW5689 Weather Reports


Display with metric or nautical units.
time (UTC)temp
F
wind
direction
speed
MPH
gust
MPH
rain 1hr
in
rain 24hr
in
rain mn
in
humidity
%
barometer
mb
20260507004016 45 273 1.0 8.0 0.00 0.00 0.00 48 1015.0
20260507003516 45 271 2.0 8.0 0.00 0.00 0.00 48 1014.9
20260507003034 45 253 2.0 8.0 0.00 0.00 0.00 48 1015.0
20260507002515 45 0 0.0 8.0 0.00 0.00 0.00 48 1015.0
20260507002019 45 0 0.0 8.0 0.00 0.00 0.00 48 1015.1
20260507001541 45 284 3.0 8.0 0.00 0.00 0.00 47 1015.0
20260507001018 46 0 0.0 5.0 0.00 0.00 0.00 47 1015.1
20260507000519 46 295 1.0 9.0 0.00 0.00 0.00 47 1015.1
20260507000033 46 292 1.0 9.0 0.00 0.00 0.00 47 1015.0
20260506235515 46 288 3.0 9.0 0.00 0.00 0.00 47 1015.1
20260506235018 46 278 4.0 9.0 0.00 0.00 0.00 46 1015.1
20260506234539 46 278 3.0 9.0 0.00 0.00 0.00 47 1015.1
20260506234016 46 265 3.0 11.0 0.00 0.00 0.00 47 1015.1
20260506233516 46 266 3.0 11.0 0.00 0.00 0.00 46 1015.2
20260506233032 46 290 6.0 11.0 0.00 0.00 0.00 47 1015.2
20260506232515 46 335 2.0 12.0 0.00 0.00 0.00 47 1015.2
20260506232015 46 273 5.0 12.0 0.00 0.00 0.00 46 1015.1
20260506231532 46 244 1.0 10.0 0.00 0.00 0.00 47 1015.3
20260506231019 46 226 4.0 12.0 0.00 0.00 0.00 46 1015.2
20260506230521 46 228 3.0 12.0 0.00 0.00 0.00 46 1015.3
20260506230034 46 303 6.0 12.0 0.00 0.00 0.00 46 1015.3
20260506225515 46 276 3.0 11.0 0.00 0.00 0.00 47 1015.3
20260506225018 46 249 4.0 11.0 0.00 0.00 0.00 47 1015.3
20260506224535 46 241 4.0 10.0 0.00 0.00 0.00 46 1015.4
20260506224015 46 1 4.0 14.0 0.00 0.00 0.00 48 1015.3
20260506223515 46 249 7.0 14.0 0.00 0.00 0.00 46 1015.4
20260506223033 46 239 3.0 11.0 0.00 0.00 0.00 47 1015.4
20260506222522 46 240 5.0 11.0 0.00 0.00 0.00 46 1015.5
20260506222015 46 269 1.0 8.0 0.00 0.00 0.00 47 1015.6
20260506221532 46 281 4.0 8.0 0.00 0.00 0.00 46 1015.6
20260506221015 46 265 2.0 14.0 0.00 0.00 0.00 48 1015.6
20260506220518 46 248 4.0 14.0 0.00 0.00 0.00 45 1015.5
20260506220036 46 230 3.0 12.0 0.00 0.00 0.00 49 1015.6
20260506215517 46 331 3.0 11.0 0.00 0.00 0.00 47 1015.6
20260506215017 46 331 4.0 11.0 0.00 0.00 0.00 47 1015.7
20260506214534 46 250 4.0 12.0 0.00 0.00 0.00 50 1015.6
20260506214020 46 271 5.0 13.0 0.00 0.00 0.00 47 1015.7
20260506213517 46 254 5.0 13.0 0.00 0.00 0.00 45 1015.6
20260506213034 46 274 4.0 11.0 0.00 0.00 0.00 46 1015.7
20260506212518 46 250 3.0 10.0 0.00 0.00 0.00 47 1015.7
20260506212016 46 276 4.0 9.0 0.00 0.00 0.00 46 1015.6
20260506211534 46 0 3.0 11.0 0.00 0.00 0.00 46 1015.7
20260506211015 46 316 3.0 14.0 0.00 0.00 0.00 46 1015.6
20260506210518 46 305 6.0 14.0 0.00 0.00 0.00 46 1015.7
20260506210039 46 236 5.0 12.0 0.00 0.00 0.00 48 1015.7
20260506205517 46 350 6.0 12.0 0.00 0.00 0.00 45 1015.7
20260506205023 46 276 3.0 16.0 0.00 0.00 0.00 45 1015.7
20260506204535 46 279 7.0 16.0 0.00 0.00 0.00 47 1015.8
20260506204018 46 240 3.0 13.0 0.00 0.00 0.00 46 1015.7
20260506203517 46 290 6.0 13.0 0.00 0.00 0.00 45 1015.8
20260506203034 46 230 3.0 10.0 0.00 0.00 0.00 50 1015.8
20260506202519 45 271 4.0 14.0 0.00 0.00 0.00 50 1015.8
20260506202021 45 301 6.0 14.0 0.00 0.00 0.00 47 1015.9
20260506201534 46 274 4.0 12.0 0.00 0.00 0.00 50 1015.8
20260506201017 46 213 4.0 11.0 0.00 0.00 0.00 50 1015.8
20260506200522 45 244 3.0 8.0 0.00 0.00 0.00 48 1015.8
20260506200035 45 20 1.0 11.0 0.00 0.00 0.00 49 1015.8
20260506195517 45 272 3.0 12.0 0.00 0.00 0.00 48 1015.9
20260506195015 45 328 2.0 13.0 0.00 0.00 0.00 49 1015.9
20260506194533 45 281 4.0 13.0 0.00 0.00 0.00 46 1016.0
20260506194015 45 261 5.0 13.0 0.00 0.00 0.00 47 1015.9
20260506193520 45 282 5.0 13.0 0.00 0.00 0.00 47 1015.9
20260506193035 45 322 7.0 14.0 0.00 0.00 0.00 49 1015.9
20260506192515 45 330 2.0 14.0 0.00 0.00 0.00 48 1015.8
20260506192019 45 328 5.0 14.0 0.00 0.00 0.00 48 1015.9
20260506191535 45 292 4.0 12.0 0.00 0.00 0.00 48 1015.9
20260506191018 45 316 4.0 12.0 0.00 0.00 0.00 50 1015.9
20260506190522 45 350 5.0 12.0 0.00 0.00 0.00 48 1015.9
20260506190032 45 301 4.0 12.0 0.00 0.00 0.00 46 1015.8
20260506185517 45 251 6.0 12.0 0.00 0.00 0.00 48 1015.9
20260506185017 45 286 6.0 12.0 0.00 0.00 0.00 47 1015.9
20260506184534 45 236 3.0 11.0 0.00 0.00 0.00 46 1015.9
20260506184018 45 8 3.0 11.0 0.00 0.00 0.00 48 1016.0
20260506183515 45 276 4.0 12.0 0.00 0.00 0.00 48 1015.9
20260506183036 45 280 4.0 12.0 0.00 0.00 0.00 49 1015.9
20260506182517 45 355 2.0 9.0 0.00 0.00 0.00 49 1015.9
20260506182017 45 295 3.0 11.0 0.00 0.00 0.00 48 1015.9
20260506181536 45 316 4.0 11.0 0.00 0.00 0.00 49 1016.0
20260506181017 44 258 2.0 13.0 0.00 0.00 0.00 52 1015.9
20260506180518 44 248 6.0 14.0 0.00 0.00 0.00 48 1016.0
20260506180041 44 350 3.0 15.0 0.00 0.00 0.00 48 1016.0
20260506175518 44 264 7.0 15.0 0.00 0.00 0.00 49 1016.1
20260506175018 44 350 4.0 12.0 0.00 0.00 0.00 49 1016.1
20260506174535 44 251 5.0 11.0 0.00 0.00 0.00 50 1016.1
20260506174018 44 265 1.0 10.0 0.00 0.00 0.00 52 1016.2
20260506173515 44 313 2.0 10.0 0.00 0.00 0.00 48 1016.2
20260506173037 43 227 4.0 11.0 0.00 0.00 0.00 50 1016.2
20260506172518 43 299 5.0 11.0 0.00 0.00 0.00 50 1016.3
20260506172017 43 296 5.0 15.0 0.00 0.00 0.00 49 1016.2
20260506171550 43 263 5.0 15.0 0.00 0.00 0.00 50 1016.3
20260506171017 43 234 7.0 15.0 0.00 0.00 0.00 49 1016.2
20260506170517 42 278 7.0 15.0 0.00 0.00 0.00 49 1016.4
20260506170039 43 355 4.0 11.0 0.00 0.00 0.00 51 1016.4
20260506165517 43 227 4.0 10.0 0.00 0.00 0.00 51 1016.4
20260506165018 43 23 3.0 12.0 0.00 0.00 0.00 51 1016.3
20260506164535 43 291 4.0 12.0 0.00 0.00 0.00 49 1016.4
20260506164017 43 290 4.0 14.0 0.00 0.00 0.00 50 1016.3
20260506163517 43 295 4.0 14.0 0.00 0.00 0.00 51 1016.3
20260506163042 43 232 5.0 10.0 0.00 0.00 0.00 50 1016.3
20260506162517 43 307 5.0 13.0 0.00 0.00 0.00 50 1016.3
20260506162018 43 267 2.0 13.0 0.00 0.00 0.00 51 1016.3
20260506161535 43 0 7.0 14.0 0.00 0.00 0.00 50 1016.3
20260506161015 43 234 7.0 14.0 0.00 0.00 0.00 51 1016.3
20260506160518 43 280 6.0 14.0 0.00 0.00 0.00 52 1016.2
20260506160035 43 282 3.0 12.0 0.00 0.00 0.00 52 1016.2
20260506155517 43 280 5.0 12.0 0.00 0.00 0.00 50 1016.2
20260506155018 43 336 4.0 11.0 0.00 0.00 0.00 51 1016.2
20260506154537 44 342 4.0 10.0 0.00 0.00 0.00 52 1016.1
20260506154019 44 302 3.0 17.0 0.00 0.00 0.00 50 1016.0
20260506153518 44 332 7.0 17.0 0.00 0.00 0.00 48 1016.0
20260506153034 44 274 6.0 15.0 0.00 0.00 0.00 47 1016.0
20260506152517 45 341 7.0 15.0 0.00 0.00 0.00 48 1015.9
20260506152018 44 322 7.0 15.0 0.00 0.00 0.00 48 1016.0
20260506151537 44 257 5.0 17.0 0.00 0.00 0.00 48 1015.8
20260506151020 43 319 8.0 17.0 0.00 0.00 0.00 48 1015.9
20260506150518 43 269 8.0 15.0 0.00 0.00 0.00 50 1016.0
20260506150035 43 294 5.0 18.0 0.00 0.00 0.00 48 1016.0
20260506145521 43 283 7.0 18.0 0.00 0.00 0.00 48 1016.1
20260506145018 43 244 6.0 14.0 0.00 0.00 0.00 48 1016.1
20260506144536 43 274 5.0 12.0 0.00 0.00 0.00 49 1016.1
20260506144020 43 313 5.0 12.0 0.00 0.00 0.00 48 1016.1
20260506143518 44 289 4.0 11.0 0.00 0.00 0.00 51 1016.0
20260506143033 44 282 3.0 11.0 0.00 0.00 0.00 53 1016.0
20260506142518 44 270 3.0 11.0 0.00 0.00 0.00 57 1015.9
20260506142017 44 332 4.0 9.0 0.00 0.00 0.00 54 1016.0
20260506141533 43 215 3.0 12.0 0.00 0.00 0.00 58 1016.0
20260506141018 42 271 5.0 12.0 0.00 0.00 0.00 57 1016.0
20260506140520 41 265 3.0 9.0 0.00 0.00 0.00 58 1016.0
20260506140037 41 269 1.0 9.0 0.00 0.00 0.00 59 1016.0
20260506135517 40 280 2.0 11.0 0.00 0.00 0.00 58 1015.9
20260506135017 40 317 4.0 11.0 0.00 0.00 0.00 58 1015.9
20260506134535 40 307 2.0 11.0 0.00 0.00 0.00 58 1015.8
20260506134017 40 317 4.0 11.0 0.00 0.00 0.00 58 1015.8
20260506133517 40 331 4.0 12.0 0.00 0.00 0.00 59 1015.8
20260506133044 40 269 5.0 12.0 0.00 0.00 0.00 58 1015.8
20260506132518 40 269 3.0 12.0 0.00 0.00 0.00 62 1015.7
20260506132017 40 218 2.0 12.0 0.00 0.00 0.00 60 1015.7
20260506131536 40 280 3.0 11.0 0.00 0.00 0.00 61 1015.6
20260506131018 40 249 5.0 11.0 0.00 0.00 0.00 62 1015.5
20260506130519 39 281 5.0 11.0 0.00 0.00 0.00 63 1015.5
20260506130032 39 280 3.0 10.0 0.00 0.00 0.00 63 1015.4
20260506125517 38 231 4.0 10.0 0.00 0.00 0.00 64 1015.3
20260506125016 38 248 3.0 7.0 0.00 0.00 0.00 66 1015.3
20260506124531 37 217 2.0 8.0 0.00 0.00 0.00 65 1015.2
20260506124016 37 237 2.0 8.0 0.00 0.00 0.00 66 1015.4
20260506123516 37 289 3.0 7.0 0.00 0.00 0.00 66 1015.3
20260506123031 37 263 3.0 7.0 0.00 0.00 0.00 66 1015.3
20260506122517 37 276 2.0 8.0 0.00 0.00 0.00 67 1015.2
20260506122016 37 234 3.0 9.0 0.00 0.00 0.00 68 1015.2
20260506121536 36 251 4.0 9.0 0.00 0.00 0.00 68 1015.1
20260506121021 36 228 3.0 7.0 0.00 0.00 0.00 69 1015.0
20260506120517 36 240 3.0 7.0 0.00 0.00 0.00 70 1014.9
20260506120037 36 0 2.0 7.0 0.00 0.00 0.00 71 1014.9
20260506115519 35 257 1.0 6.0 0.00 0.00 0.00 70 1014.8
20260506115016 35 265 1.0 6.0 0.00 0.00 0.00 70 1014.7
20260506114533 35 290 1.0 4.0 0.00 0.00 0.00 71 1014.5
20260506114021 35 284 1.0 7.0 0.00 0.00 0.00 72 1014.6
20260506113516 35 0 1.0 7.0 0.00 0.00 0.00 72 1014.5
20260506113035 34 281 1.0 6.0 0.00 0.00 0.00 72 1014.6
20260506112516 34 0 0.0 6.0 0.00 0.00 0.00 73 1014.5
20260506112016 34 256 2.0 8.0 0.00 0.00 0.00 74 1014.6
20260506111534 34 242 2.0 8.0 0.00 0.00 0.00 74 1014.6
20260506111016 33 237 2.0 8.0 0.00 0.00 0.00 75 1014.6
20260506110518 33 234 3.0 8.0 0.00 0.00 0.00 75 1014.7
20260506110037 33 232 3.0 7.0 0.00 0.00 0.00 76 1014.6
20260506105519 33 244 3.0 7.0 0.00 0.00 0.00 76 1014.5
20260506105017 32 219 2.0 7.0 0.00 0.00 0.00 77 1014.5
20260506104537 32 229 2.0 6.0 0.00 0.00 0.00 78 1014.5
20260506104016 32 230 2.0 5.0 0.00 0.00 0.00 79 1014.4
20260506103517 31 223 1.0 4.0 0.00 0.00 0.00 78 1014.2
20260506103037 31 223 1.0 4.0 0.00 0.00 0.00 79 1014.1
20260506102517 31 222 0.0 4.0 0.00 0.00 0.00 79 1014.0
20260506102017 31 0 0.0 0.0 0.00 0.00 0.00 79 1014.0
20260506101544 31 0 0.0 0.0 0.00 0.00 0.00 79 1014.0
20260506101021 31 0 0.0 0.0 0.00 0.00 0.00 79 1014.1
20260506100516 31 0 0.0 0.0 0.00 0.00 0.00 79 1014.1
20260506100037 31 0 0.0 0.0 0.00 0.00 0.00 79 1014.1
20260506095516 31 0 0.0 0.0 0.00 0.00 0.00 80 1014.0
20260506095016 30 0 0.0 3.0 0.00 0.00 0.00 80 1014.1
20260506094536 30 0 1.0 3.0 0.00 0.00 0.00 80 1014.1
20260506094016 30 0 1.0 3.0 0.00 0.00 0.00 80 1014.1
20260506093516 30 289 2.0 3.0 0.00 0.00 0.00 80 1014.1
20260506093032 30 0 0.0 3.0 0.00 0.00 0.00 79 1014.2
20260506092517 30 0 1.0 3.0 0.00 0.00 0.00 79 1014.2
20260506092017 30 289 1.0 3.0 0.00 0.00 0.00 79 1014.2
20260506091532 31 289 1.0 3.0 0.00 0.00 0.00 78 1014.3
20260506091017 31 289 1.0 3.0 0.00 0.00 0.00 78 1014.1
20260506090516 31 289 1.0 3.0 0.00 0.00 0.00 78 1014.1
20260506090035 31 289 1.0 3.0 0.00 0.00 0.00 77 1014.0
20260506085516 31 0 0.0 0.0 0.00 0.00 0.00 77 1013.9
20260506085016 31 0 0.0 0.0 0.00 0.00 0.00 77 1014.0
20260506084539 31 0 0.0 0.0 0.00 0.00 0.00 76 1013.9
20260506084016 31 0 0.0 0.0 0.00 0.00 0.00 76 1014.0
20260506083521 32 0 0.0 0.0 0.00 0.00 0.00 76 1014.0
20260506083034 32 0 0.0 2.0 0.00 0.00 0.00 76 1014.1
20260506082516 32 0 0.0 3.0 0.00 0.00 0.00 75 1014.2
20260506082020 32 289 1.0 3.0 0.00 0.00 0.00 75 1014.1
20260506081536 32 289 2.0 3.0 0.00 0.00 0.00 74 1014.1
20260506081021 32 289 1.0 4.0 0.00 0.00 0.00 74 1014.0
20260506080517 33 290 2.0 4.0 0.00 0.00 0.00 73 1013.9
20260506073516 34 290 2.0 4.0 0.00 0.00 0.00 69 1013.8
20260506073036 34 290 3.0 5.0 0.00 0.00 0.00 67 1013.8
20260506072516 35 291 3.0 5.0 0.00 0.00 0.00 68 1013.8
20260506072019 35 291 3.0 4.0 0.00 0.00 0.00 68 1013.8
20260506071534 35 291 2.0 5.0 0.00 0.00 0.00 67 1013.8
20260506071016 35 292 2.0 5.0 0.00 0.00 0.00 67 1013.8
20260506070516 35 291 2.0 5.0 0.00 0.00 0.00 67 1013.9
20260506062515 37 0 1.0 4.0 0.00 0.00 0.00 64 1013.7
20260506062017 37 299 2.0 5.0 0.00 0.00 0.00 63 1013.7
20260506061532 37 299 2.0 5.0 0.00 0.00 0.00 63 1013.8
20260506061017 37 309 2.0 5.0 0.00 0.00 0.00 63 1013.7
20260506060517 37 288 2.0 4.0 0.00 0.00 0.00 63 1013.7
20260506051016 39 0 1.0 6.0 0.00 0.00 0.00 59 1013.0
20260506050518 39 282 1.0 5.0 0.00 0.00 0.00 58 1012.9
20260506045020 40 0 1.0 4.0 0.00 0.00 0.00 57 1012.8
20260506044537 40 310 0.0 4.0 0.00 0.00 0.00 56 1012.8
20260506044016 40 0 1.0 8.0 0.00 0.00 0.00 56 1012.9
20260506043518 40 294 2.0 8.0 0.00 0.00 0.00 55 1012.8
20260506043036 40 292 2.0 8.0 0.00 0.00 0.00 56 1012.8
20260506042522 40 324 2.0 6.0 0.00 0.00 0.00 55 1012.8
20260506042016 40 265 2.0 6.0 0.00 0.00 0.00 55 1012.7
20260506041535 40 250 1.0 9.0 0.00 0.00 0.00 55 1012.7
20260506041016 41 286 2.0 9.0 0.00 0.00 0.00 55 1012.7
20260506040516 41 280 2.0 7.0 0.00 0.00 0.00 55 1012.7
20260506040039 41 285 2.0 5.0 0.00 0.00 0.00 54 1012.6
20260506035517 41 276 0.0 6.0 0.00 0.00 0.00 54 1012.7
20260506035017 41 276 2.0 6.0 0.00 0.00 0.00 54 1012.6
20260506034531 41 273 2.0 6.0 0.00 0.00 0.00 54 1012.5
20260506034016 42 286 1.0 7.0 0.00 0.00 0.00 54 1012.5
20260506033516 42 0 2.0 7.0 0.00 0.00 0.00 53 1012.5
20260506033035 42 302 2.0 9.0 0.00 0.00 0.00 53 1012.5
20260506032516 42 300 3.0 9.0 0.00 0.00 0.00 52 1012.5
20260506032016 42 331 3.0 8.0 0.00 0.00 0.00 52 1012.4
20260506031535 42 316 2.0 8.0 0.00 0.00 0.00 52 1012.5
20260506031018 43 315 3.0 7.0 0.00 0.00 0.00 52 1012.4
20260506030522 43 0 2.0 7.0 0.00 0.00 0.00 51 1012.4
20260506030033 43 286 2.0 7.0 0.00 0.00 0.00 51 1012.3
20260506025517 43 281 2.0 7.0 0.00 0.00 0.00 50 1012.2
20260506025017 44 293 1.0 7.0 0.00 0.00 0.00 50 1012.1
20260506024534 44 342 1.0 11.0 0.00 0.00 0.00 51 1012.0
20260506024019 44 332 2.0 11.0 0.00 0.00 0.00 50 1011.9
20260506023519 44 338 2.0 9.0 0.00 0.00 0.00 49 1011.9
20260506023044 44 305 2.0 11.0 0.00 0.00 0.00 49 1011.9
20260506022516 44 324 4.0 11.0 0.00 0.00 0.00 49 1011.8
20260506022017 44 286 4.0 10.0 0.00 0.00 0.00 49 1011.7
20260506021535 44 330 2.0 6.0 0.00 0.00 0.00 49 1011.5
20260506021017 45 0 1.0 5.0 0.00 0.00 0.00 48 1011.5
20260506020516 45 315 1.0 5.0 0.00 0.00 0.00 48 1011.2
20260506020035 45 0 1.0 8.0 0.00 0.00 0.00 48 1011.2
20260506015516 45 338 1.0 9.0 0.00 0.00 0.00 47 1011.2
20260506015021 46 333 2.0 9.0 0.00 0.00 0.00 47 1011.1
20260506014534 46 280 1.0 7.0 0.00 0.00 0.00 46 1011.0
20260506014016 46 0 0.0 9.0 0.00 0.00 0.00 45 1010.9
20260506013516 46 294 3.0 9.0 0.00 0.00 0.00 44 1010.9
20260506013032 47 269 2.0 9.0 0.00 0.00 0.00 44 1010.8
20260506012516 47 269 2.0 9.0 0.00 0.00 0.00 44 1010.8
20260506012017 47 313 2.0 9.0 0.00 0.00 0.00 43 1010.7
20260506011536 47 288 3.0 9.0 0.00 0.00 0.00 43 1010.7
20260506011018 48 276 2.0 7.0 0.00 0.00 0.00 43 1010.6
20260506010518 48 0 2.0 7.0 0.00 0.00 0.00 43 1010.6
20260506010045 48 285 2.0 6.0 0.00 0.00 0.00 42 1010.5
20260506005517 48 251 3.0 11.0 0.00 0.00 0.00 41 1010.6
20260506005018 49 280 4.0 11.0 0.00 0.00 0.00 40 1010.4
20260506004532 49 272 3.0 11.0 0.00 0.00 0.00 41 1010.4